H-2A R/B (38341 NORAD) Tracking and Keplerian Element Data

This shows tracking and keplerian element data for the satellite.

Feedback or suggestion? Click here.




ElementValue
Catalog38341
NameH-2A R/B
Epoch Orbit35111
Epoch Day317.32901679
Epoch Year2018
RAAN67.567
Inclination98.4306
Eccentricity0.0054625
Argument of Perigee304.6373
Mean Anonmoly54.9696
Mean Motion14.83814884
Decay Rate1.34E-06
L11 38341U 12025E 18317.32901679 .00000134 00000-0 23377-4 0 9990
L22 38341 98.4306 67.5670 0054625 304.6373 54.9696 14.83814884351119

Live tracking and technical data element details for H-2A R/B (NORAD 38341). H-2A R/B can be tracked NOW for your location showing map with azimuth and elevation plus other details from your city location.

Track the satellite on the map from your city or location and see movement details for azimuth, elevation, latitude, longitude, range, height, and movement on the map or in text.







IsCatalogInMostPopularTable: catalog: 38341, numindb: 150
Update: records affected: 1



GetName: 38341 H-2A R/B

Hit Count: updated at: Wed, 14 Nov 2018 15:52:12 GMT